EW3176 Weather Reports


Display with metric or nautical units.
time (UTC)temp
F
wind
direction
speed
MPH
gust
MPH
rain 1hr
in
rain 24hr
in
rain mn
in
humidity
%
barometer
mb
20260509034020 60 0.0 0.0 0.00 0.00 0.00 69 1017.8
20260509033021 59 0.0 0.0 0.00 0.00 0.00 69 1018.1
20260509032042 59 0.0 0.0 0.00 0.00 0.00 70 1018.0
20260509031021 59 0.0 0.0 0.00 0.00 0.00 70 1018.0
20260509030020 60 0.0 0.0 0.00 0.00 0.00 69 1018.1
20260509025020 60 0.0 0.0 0.00 0.00 0.00 68 1018.2
20260509024521 60 0.0 0.0 0.00 0.00 0.00 67 1018.5
20260509023521 60 0.0 0.0 0.00 0.00 0.00 66 1018.6
20260509022520 60 0.0 0.0 0.00 0.00 0.00 67 1018.6
20260509021541 60 0.0 0.0 0.00 0.00 0.00 66 1018.5
20260509020521 60 0.0 0.0 0.00 0.00 0.00 67 1018.5
20260509015521 61 0.0 0.0 0.00 0.00 0.00 66 1018.5
20260509014520 61 0.0 0.0 0.00 0.00 0.00 65 1018.4
20260509013541 61 0.0 0.0 0.00 0.00 0.00 65 1018.4
20260509012521 61 0.0 0.0 0.00 0.00 0.00 63 1018.3
20260509011521 62 0.0 0.0 0.00 0.00 0.00 63 1018.0
20260509010520 62 0.0 0.0 0.00 0.00 0.00 61 1018.0
20260509005541 63 0.0 0.0 0.00 0.00 0.00 59 1017.7
20260509004601 63 0.0 0.0 0.00 0.00 0.00 60 1017.5
20260509003520 64 0.0 0.0 0.00 0.00 0.00 56 1017.5
20260509002520 64 0.0 0.0 0.00 0.00 0.00 55 1017.4
20260509001522 65 0.0 0.0 0.00 0.00 0.00 54 1017.4
20260509000521 66 0.0 0.0 0.00 0.00 0.00 54 1017.4
20260508235520 67 0.0 0.0 0.00 0.00 0.00 51 1017.6
20260508234520 68 0.0 0.0 0.00 0.00 0.00 51 1017.4
20260508233542 68 0.0 1.0 0.00 0.00 0.00 48 1017.4
20260508232522 69 0.0 1.0 0.00 0.00 0.00 47 1017.2
20260508230520 70 0.0 2.0 0.00 0.02 0.00 45 1017.1
20260508225520 70 0.0 2.0 0.00 0.02 0.00 44 1017.2
20260508224526 70 45 1.0 7.0 0.00 0.02 0.00 44 1017.3
20260508223522 70 0.0 5.0 0.00 0.02 0.00 43 1017.2
20260508222520 70 45 1.0 4.0 0.00 0.02 0.00 43 1017.0
20260508221541 71 0.0 3.0 0.00 0.02 0.00 42 1017.0
20260508220522 71 0.0 2.0 0.00 0.02 0.00 42 1017.2
20260508215522 71 0.0 3.0 0.00 0.02 0.00 41 1017.2
20260508214622 71 45 1.0 6.0 0.00 0.02 0.00 37 1016.9
20260508213520 71 0.0 3.0 0.00 0.02 0.00 37 1017.0
20260508212522 72 0.0 1.0 0.00 0.02 0.00 39 1017.1
20260508211522 72 0.0 3.0 0.00 0.02 0.00 38 1017.1
20260508210522 73 45 1.0 3.0 0.00 0.02 0.00 34 1017.2
20260508205542 73 0.0 3.0 0.00 0.02 0.00 35 1017.6
20260508204522 74 68 1.0 4.0 0.00 0.02 0.00 35 1017.8
20260508203522 75 45 1.0 5.0 0.00 0.02 0.00 39 1017.9
20260508202522 75 0.0 3.0 0.00 0.02 0.00 39 1017.8
20260508201522 75 68 1.0 4.0 0.00 0.02 0.00 38 1017.8
20260508200542 74 45 1.0 5.0 0.00 0.02 0.00 37 1017.6
20260508195522 75 0.0 2.0 0.00 0.02 0.00 38 1017.9
20260508194521 74 0.0 2.0 0.00 0.02 0.00 37 1018.0
20260508193522 74 90 1.0 4.0 0.00 0.02 0.00 38 1018.2
20260508192522 75 45 1.0 4.0 0.00 0.02 0.00 35 1018.1
20260508191542 74 0.0 2.0 0.00 0.02 0.00 37 1018.5
20260508190522 74 45 1.0 6.0 0.00 0.02 0.00 35 1018.6
20260508185522 75 68 1.0 3.0 0.00 0.02 0.00 37 1018.7
20260508184522 75 0.0 2.0 0.00 0.02 0.00 38 1018.9
20260508183522 76 0.0 5.0 0.00 0.02 0.00 38 1019.1
20260508182522 76 0.0 2.0 0.00 0.02 0.00 37 1019.2
20260508181522 75 293 1.0 4.0 0.00 0.02 0.00 34 1019.3
20260508180522 75 0.0 1.0 0.00 0.02 0.00 38 1019.5
20260508175521 74 0.0 1.0 0.00 0.02 0.00 36 1019.6
20260508174522 73 0.0 2.0 0.00 0.02 0.00 37 1019.6
20260508173522 73 68 1.0 9.0 0.00 0.02 0.00 37 1019.7
20260508172522 73 0.0 3.0 0.00 0.02 0.00 38 1019.6
20260508171522 74 68 1.0 2.0 0.00 0.02 0.00 40 1019.7
20260508170521 74 0.0 1.0 0.00 0.02 0.00 41 1019.9
20260508165522 74 0.0 2.0 0.00 0.02 0.00 42 1020.2
20260508164522 74 0.0 1.0 0.00 0.02 0.00 44 1020.3
20260508163522 74 0.0 3.0 0.00 0.02 0.00 39 1020.5
20260508162521 72 0.0 1.0 0.00 0.02 0.00 43 1020.7
20260508161522 74 0.0 2.0 0.00 0.02 0.00 44 1020.8
20260508160541 73 0.0 1.0 0.00 0.02 0.00 44 1020.8
20260508155522 72 0.0 2.0 0.00 0.02 0.00 46 1021.0
20260508154521 71 0.0 1.0 0.00 0.02 0.00 45 1021.1
20260508153522 70 0.0 2.0 0.00 0.02 0.00 49 1021.1
20260508152522 70 0.0 1.0 0.00 0.02 0.00 50 1021.2
20260508151522 69 0.0 1.0 0.00 0.02 0.00 51 1021.3
20260508150522 69 0.0 3.0 0.00 0.02 0.00 53 1021.2
20260508145521 68 0.0 1.0 0.00 0.02 0.00 53 1021.2
20260508144602 67 68 1.0 3.0 0.00 0.02 0.00 47 1021.2
20260508143542 67 0.0 2.0 0.00 0.02 0.00 55 1021.1
20260508142521 67 0.0 1.0 0.00 0.02 0.00 56 1021.0
20260508141521 67 0.0 3.0 0.00 0.02 0.00 54 1021.0
20260508140522 66 0.0 2.0 0.00 0.02 0.00 61 1020.9
20260508135542 68 0.0 1.0 0.00 0.02 0.00 60 1020.9
20260508134521 67 0.0 2.0 0.00 0.02 0.00 60 1020.8
20260508133521 66 0.0 1.0 0.00 0.02 0.00 63 1020.8
20260508132521 66 0.0 1.0 0.00 0.02 0.00 65 1020.7
20260508131521 66 0.0 2.0 0.00 0.02 0.00 65 1020.6
20260508130541 63 0.0 1.0 0.00 0.02 0.00 73 1020.7
20260508125521 62 0.0 1.0 0.00 0.02 0.00 73 1020.6
20260508124521 60 0.0 3.0 0.00 0.02 0.00 78 1020.5
20260508123521 58 0.0 1.0 0.00 0.02 0.00 83 1020.5
20260508122521 58 0.0 1.0 0.00 0.02 0.00 86 1020.4
20260508121521 54 0.0 1.0 0.00 0.02 0.00 98 1020.3
20260508120521 51 0.0 2.0 0.00 0.02 0.00 99 1020.0
20260508120021 49 0.0 2.0 0.00 0.02 0.00 99 1020.0
20260508115143 49 0.0 0.0 0.00 0.02 0.00 99 1019.8
20260508114021 49 0.0 1.0 0.00 0.02 0.00 99 1019.7
20260508113021 49 0.0 0.0 0.00 0.02 0.00 99 1019.6
20260508112021 48 0.0 0.0 0.00 0.02 0.00 99 1019.4
20260508111021 48 0.0 0.0 0.00 0.02 0.00 98 1019.3
20260508110021 48 0.0 0.0 0.00 0.02 0.00 98 1019.2
20260508105021 48 0.0 0.0 0.00 0.02 0.00 98 1019.1
20260508104021 48 0.0 0.0 0.00 0.02 0.00 98 1018.9
20260508103021 48 0.0 0.0 0.00 0.02 0.00 98 1018.7
20260508102021 49 0.0 0.0 0.00 0.02 0.00 98 1018.4
20260508101021 49 0.0 0.0 0.00 0.02 0.00 98 1018.3
20260508100021 49 0.0 0.0 0.00 0.02 0.00 98 1018.3
20260508095021 49 0.0 0.0 0.00 0.02 0.00 98 1018.2
20260508094021 49 0.0 0.0 0.00 0.02 0.00 98 1018.3
20260508093021 50 0.0 0.0 0.00 0.02 0.00 98 1018.3
20260508092021 50 0.0 0.0 0.00 0.02 0.00 98 1018.0
20260508091021 50 0.0 0.0 0.00 0.02 0.00 98 1017.9
20260508090021 50 0.0 0.0 0.00 0.02 0.00 98 1017.6
20260508085021 50 0.0 0.0 0.00 0.02 0.00 98 1017.6
20260508084026 50 0.0 0.0 0.00 0.02 0.00 98 1017.6
20260508083021 50 0.0 0.0 0.00 0.02 0.00 98 1017.5
20260508082021 51 0.0 0.0 0.00 0.02 0.00 98 1017.4
20260508081101 51 0.0 0.0 0.00 0.02 0.00 98 1017.3
20260508080021 51 0.0 1.0 0.00 0.02 0.00 98 1017.2
20260508075021 51 0.0 0.0 0.00 0.02 0.00 98 1017.2
20260508074021 51 0.0 0.0 0.00 0.02 0.00 98 1017.1
20260508073021 52 0.0 0.0 0.00 0.02 0.00 98 1016.9
20260508072020 52 0.0 0.0 0.00 0.02 0.00 98 1016.9
20260508071021 52 0.0 0.0 0.00 0.02 0.00 98 1016.8
20260508070020 52 0.0 0.0 0.00 0.02 0.00 98 1016.6
20260508065101 52 0.0 0.0 0.00 0.02 0.00 98 1016.7
20260508064021 52 0.0 3.0 0.00 0.02 0.00 98 1016.6
20260508063021 52 0.0 0.0 0.00 0.02 0.00 98 1016.5
20260508062021 52 0.0 2.0 0.00 0.02 0.00 98 1016.5
20260508061021 52 0.0 0.0 0.00 0.02 0.00 98 1016.6
20260508060020 52 0.0 0.0 0.00 0.02 0.00 98 1016.8
20260508055020 52 0.0 0.0 0.00 0.02 0.00 98 1016.7
20260508054100 52 0.0 0.0 0.00 0.02 0.00 98 1016.7
20260508053021 52 0.0 0.0 0.00 0.02 0.00 97 1016.7
20260508052022 53 0.0 0.0 0.00 0.02 0.00 97 1016.7
20260508051022 53 0.0 0.0 0.00 0.02 0.00 98 1016.8
20260508050021 53 0.0 0.0 0.00 0.02 0.00 98 1016.6
20260508045021 53 0.0 0.0 0.00 0.02 0.00 98 1016.7
20260508044022 52 0.0 0.0 0.00 0.02 0.00 97 1016.7
20260508043042 52 0.0 0.0 0.00 0.02 0.00 97 1016.6
20260508042021 52 0.0 0.0 0.00 0.02 0.00 97 1016.6
20260508041041 52 0.0 0.0 0.00 0.02 0.00 97 1016.5
20260508040044 52 0.0 0.0 0.00 0.02 0.02 97 1016.4
20260508035021 53 0.0 0.0 0.00 0.02 0.02 97 1016.1